Flag for U.S.A. Weather past 2 weeks in Paradise, Nevada, U.S.A.

Now
76 °F

Passing clouds.


Feels Like: 76 °F
Forecast: 69 / 100 °F
Wind: 7 mph from Southwest

Location: McCarran International Airport

Current Time: May 30, 2015 at 6:03:31 AM

Latest Report: May 30, 2015 at 4:56 AM


Visibility: 10 mi

Pressure: 29.80 "Hg

Humidity: 17%

Dew point: 28 °F

Location of ParadiseLocation

Historic Weather in Paradise — Graph

°F

Paradise temperature yesterday

Maximum temperature yesterday: 99 °F (at 2:56 PM)
Minimum temperature yesterday: 76 °F (at 3:56 AM)
Average temperature yesterday: 89 °F

Past Weeks' High & Low Weather Summary

 TemperatureHumidityPressure
High99 °F (May 29, 2:56 PM)75% (May 25, 4:56 AM)29.93 "Hg (May 25, 4:56 AM)
Low53 °F (May 15, 5:56 AM)7% (May 29, 2:56 PM)29.64 "Hg (May 15, 4:56 PM)
Average74 °F28%29.78 "Hg
* Reported May 15 4:56 AM — May 30 4:56 AM, Paradise, Weather by CustomWeather, © 2015

Note: Actual official high and low records may vary slightly from our data, if they occured in-between our weather recording intervals... More about our weather records

Advertising

Paradise weather history for previous 24 hours

 ConditionsComfort  
Time TempWeatherWind HumidityBarometerVisibility
4:56 AM
Sat, May 30
76 °FPassing clouds.7 mph17%29.80 "Hg10 mi
3:56 AM76 °FPassing clouds.7 mph17%29.80 "Hg10 mi
2:56 AM80 °FPassing clouds.7 mph13%29.78 "Hg10 mi
1:56 AM80 °FPassing clouds.7 mph13%29.79 "Hg10 mi
12:56 AM83 °FPassing clouds.7 mph9%29.78 "Hg10 mi
11:56 PM
Fri, May 29
86 °FPassing clouds.10 mph8%29.78 "Hg10 mi
10:56 PM88 °FPassing clouds.13 mph7%29.77 "Hg10 mi
9:56 PM90 °FPassing clouds.13 mph7%29.76 "Hg10 mi
8:56 PM93 °FPassing clouds.13 mph7%29.74 "Hg10 mi
7:56 PM95 °FPassing clouds.12 mph7%29.72 "Hg10 mi
6:56 PM97 °FPassing clouds.7 mph7%29.72 "Hg10 mi
5:56 PM98 °FPassing clouds.9 mph7%29.72 "Hg10 mi
4:56 PM98 °FPassing clouds.5 mph7%29.73 "Hg10 mi
3:56 PM98 °FPassing clouds.12 mph7%29.74 "Hg10 mi
2:56 PM99 °FPassing clouds.10 mph7%29.76 "Hg10 mi
1:56 PM95 °FPassing clouds.7 mph8%29.79 "Hg10 mi
12:56 PM95 °FPassing clouds.No wind9%29.82 "Hg10 mi
11:56 AM92 °FPassing clouds.9 mph10%29.84 "Hg10 mi
10:56 AM89 °FPassing clouds.5 mph11%29.86 "Hg10 mi
9:56 AM88 °FPassing clouds.6 mph15%29.86 "Hg10 mi
8:56 AM85 °FPassing clouds.No wind16%29.86 "Hg10 mi
7:56 AM83 °FPassing clouds.3 mph15%29.85 "Hg10 mi
6:56 AM80 °FSunny.3 mph17%29.84 "Hg10 mi
Weather by CustomWeather, © 2015

See weather overviewHow to use our weather pages